Regional Weather Roundup
Issued by NWS

Home | Current Version | Previous Version | Graphics & Text | Print | Product List | Glossary On
Versions: 1 2 3 4 5 6 7 8 9 10 11 12 13 14 15 16 17 18 19 20 21 22 23 24 25 26 27 28 29 30 31 32 33 34 35 36 37 38 39 40 41 42 43 44 45 46 47 48 49 50
000
ASUS45 KSLC 252110
RWRUT

UTAH REGIONAL WEATHER ROUNDUP
NATIONAL WEATHER SERVICE SALT LAKE CITY UT
300 PM MDT TUE JUL 25 2017

UTZ001>011-023>025-252200-

NORTHERN UTAH

CITY           SKY/WX    TMP DP  RH WIND       PRES   REMARKS
BRIGHAM CITY   CLOUDY    82  51  34 NW5       30.10F
HILL AFB       PTSUNNY   82  54  38 CALM      30.12F
LOGAN          CLOUDY    80  54  40 N6        30.12S
OGDEN          PTSUNNY   83  54  36 CALM      30.09F
SALT LAKE CITY PTSUNNY   82  55  39 SW5       30.09S
TOOELE VALLEY  CLOUDY    82  55  39 N12       30.09F
WENDOVER       MOSUNNY   85  54  34 E9        30.08F
HEBER CITY     CLOUDY    73  54  49 W6        30.18R
WEST JORDAN    CLOUDY    77  63  60 E6        30.13S

$$

UTZ011>015-024>027-252200-

CENTRAL/NORTHEAST UTAH

CITY           SKY/WX    TMP DP  RH WIND       PRES   REMARKS
PROVO AIRPORT  CLOUDY    77  61  57 SE6       30.14S
MOAB/CANYONLAN PTSUNNY   74  66  76 CALM      30.12F
DELTA          CLOUDY    77  55  47 S5        30.13F
PRICE          CLOUDY    71  61  70 VRB5      30.21S
ROOSEVELT      MOSUNNY   75  59  57 SE5       30.19F
VERNAL         PTSUNNY   72  62  71 VRB6      30.18F

$$

UTZ013>016-019>022-027-252200-

SOUTHERN UTAH

CITY           SKY/WX    TMP DP  RH WIND       PRES   REMARKS
BRYCE CANYON   CLOUDY    63  57  81 W8        30.34S
CEDAR CITY     CLOUDY    69  60  73 SW6       30.22F
MILFORD        CLOUDY    77  60  55 S12       30.16S
ST GEORGE      CLOUDY    74  67  78 CALM      30.11S
HANKSVILLE     PTSUNNY   77  63  61 CALM      30.14F
BLANDING       PTSUNNY   79  59  49 S6        30.26F

$$

REGIONAL REPORTS     COLORADO/ARIZONA

CITY           SKY/WX    TMP DP  RH WIND       PRES   REMARKS
CRAIG, CO      CLOUDY    74  56  53 NW8       30.24R
GRAND JUNCTION LGT RAIN  71  66  84 NW7       30.15R
RIFLE, CO      CLOUDY    79  57  46 W8        30.17F
MONTROSE, CO   MOSUNNY   81  57  43 SE14      30.19F
CORTEZ, CO     CLOUDY    80  57  45 SW7       30.21S
COLORADO CITY  MOCLDY    70  66  88 SW6       30.24R
PAGE, AZ       PTSUNNY   70  66  87 NW9       30.12S
GRAND CANYON   LGT RAIN  60  58  92 SW9       30.34R FOG
KINGMAN, AZ    LGT RAIN  68  65  90 SE10      30.20R
FLAGSTAFF, AZ  CLOUDY    65  59  81 SW10      30.35R

$$

REGIONAL REPORTS    NEVADA/IDAHO/WYOMING

CITY           SKY/WX    TMP DP  RH WIND       PRES   REMARKS
LAS VEGAS, NV  CLOUDY    80  64  58 E15       30.06F
ELY, NY        PTSUNNY   79  48  33 NW6       30.18F
ELKO, NV       SUNNY     88  43  20 MISG      30.10F
POCATELLO, ID  CLOUDY    81  50  33 N5        30.12S
BURLEY, ID     PTSUNNY   84  51  31 SE6       30.05F
FORT BRIDGER,  CLOUDY    73  47  39 W8        30.29S
EVANSTON, WY   CLOUDY    70  52  52 VRB3      30.28S
ROCK SPRINGS,  PTSUNNY   73  51  46 VRB7      30.25S
KEMMERER, WY     N/A     70  46  43 W15       30.28S

$$



USA.gov is the U.S. government's official web portal to all federal, state and local government web resources and services.